{"data":{"norad_id":48330,"intl_designator":"2021-036BG","name":"STARLINK-2501","alt_names":[],"object_type":"PAYLOAD","status":"ACTIVE","operator":null,"country":"US","launch_date":"2021-04-29","launch_site_code":"AFETR","launch_vehicle":null,"mission":null,"orbit_class":"UNKNOWN","rcs_meters":null,"size_class":null,"mass_kg":null,"dimensions":null,"purposes":["comms"],"wikipedia_slug":null,"has_3d_model":false,"image_url":null,"decayed_at":null,"tle_current":{"epoch":"2026-05-25T04:02:58.397280Z","epoch_age_seconds":60585,"freshness":"FRESH","line1":"1 48330U 21036BG  26145.16873145  .00150235  00000+0  48926-2 0  9999","line2":"2 48330  53.1590 105.7682 0001274  87.0262 273.0885 15.30791543279752","mean_motion":15.30791543,"eccentricity":0.0001274,"inclination_deg":53.159,"raan_deg":105.7682,"arg_perigee_deg":87.0262,"mean_anomaly_deg":273.0885,"bstar":0.0048926,"rev_number":27975,"period_min":94.068980625404,"perigee_km":472.57650533799,"apogee_km":474.32228955206,"semimajor_km":6851.586397445,"source":"CELESTRAK","updated_at":"2026-05-25T13:38:16.683283Z"}}}